Flag for Hungary Weather past 2 weeks in Budapest, Hungary

Now
70 °F

Sunny.


Feels Like: 70 °F
Forecast: 49 / 79 °F
Wind: 9 mph from Northwest

Location: Ferenc Liszt International Airport

Current Time: Jul 31, 2015 at 10:11:49 AM

Latest Report: Jul 31, 2015 at 10:00 AM


Visibility: 10 mi

Pressure: 30.01 "Hg

Humidity: 57%

Dew point: 54 °F

Location of BudapestLocation

Historic Weather in Budapest — Graph

°F

Budapest temperature yesterday

Maximum temperature yesterday: 72 °F (at 6:00 PM)
Minimum temperature yesterday: 59 °F (at 11:30 PM)
Average temperature yesterday: 65 °F

Past Weeks' High & Low Weather Summary

 TemperatureHumidityPressure
High97 °F (Jul 18, 3:00 PM)100% (Jul 24, 2:30 AM)30.15 "Hg (Jul 24, 2:30 AM)
Low50 °F (Jul 27, 4:30 AM)28% (Jul 26, 4:30 PM)29.68 "Hg (Jul 25, 4:30 PM)
Average76 °F64%29.92 "Hg
* Reported Jul 16 9:00 AM — Jul 31 9:00 AM, Budapest, Weather by CustomWeather, © 2015

Note: Actual official high and low records may vary slightly from our data, if they occured in-between our weather recording intervals... More about our weather records

Advertising

Budapest weather history for previous 24 hours

 ConditionsComfort  
Time TempWeatherWind HumidityBarometerVisibility
9:00 AM
Fri, Jul 31
66 °FSunny.9 mph68%30.01 "Hg10 mi
8:30 AM64 °FSunny.9 mph73%30.01 "Hg10 mi
8:00 AM63 °FSunny.8 mph77%29.98 "Hg10 mi
7:30 AM64 °FSunny.7 mph68%29.98 "Hg10 mi
7:00 AM63 °FSunny.7 mph73%29.98 "Hg10 mi
6:30 AM64 °FPassing clouds.6 mph64%29.98 "HgN/A
6:00 AM63 °FClear.8 mph68%29.98 "Hg10 mi
5:30 AM63 °FClear.10 mph73%29.98 "Hg10 mi
5:00 AM63 °FClear.8 mph73%29.98 "Hg10 mi
4:30 AM61 °FPassing clouds.6 mph77%29.98 "HgN/A
4:00 AM59 °FClear.7 mph82%29.98 "Hg10 mi
3:30 AM59 °FClear.3 mph82%29.98 "Hg10 mi
3:00 AM61 °FClear.7 mph77%29.98 "Hg10 mi
2:30 AM61 °FClear.9 mph77%29.98 "Hg10 mi
2:00 AM61 °FClear.8 mph77%29.95 "Hg10 mi
1:30 AM59 °FClear.7 mph82%29.98 "Hg10 mi
1:00 AM59 °FClear.5 mph82%29.98 "Hg10 mi
12:30 AM59 °FClear.2 mph82%29.98 "Hg10 mi
12:00 AM59 °FClear.5 mph82%29.98 "Hg10 mi
11:30 PM
Thu, Jul 30
59 °FClear.2 mph82%29.98 "Hg10 mi
11:00 PM61 °FClear.3 mph83%29.98 "Hg10 mi
10:30 PM63 °FClear.2 mph77%29.98 "Hg10 mi
10:00 PM64 °FClear.2 mph68%29.95 "Hg10 mi
9:30 PM63 °FClear.6 mph73%29.95 "Hg10 mi
9:00 PM63 °FSunny.3 mph73%29.95 "Hg10 mi
8:30 PM66 °FSunny.7 mph64%29.95 "Hg10 mi
8:00 PM68 °FSunny.5 mph56%29.95 "Hg10 mi
7:30 PM68 °FSunny.8 mph60%29.95 "Hg10 mi
7:00 PM72 °FSunny.9 mph50%29.95 "Hg10 mi
6:30 PM72 °FSunny.8 mph50%29.95 "Hg10 mi
6:00 PM72 °FSunny.9 mph50%29.95 "Hg10 mi
5:30 PM70 °FSunny.8 mph53%29.95 "Hg10 mi
5:00 PM70 °FSunny.10 mph53%29.95 "Hg10 mi
4:30 PM70 °FSunny.10 mph57%29.95 "Hg10 mi
4:00 PM70 °FSunny.12 mph57%29.95 "Hg10 mi
3:30 PM68 °FPassing clouds.10 mph64%29.95 "HgN/A
3:00 PM68 °FPassing clouds.9 mph64%29.98 "HgN/A
2:30 PM68 °FSunny.9 mph69%29.95 "Hg10 mi
2:00 PM66 °FPartly sunny.8 mph73%29.98 "HgN/A
1:30 PM66 °FPartly sunny.9 mph73%29.98 "HgN/A
1:00 PM66 °FPartly sunny.6 mph83%29.98 "HgN/A
12:30 PM66 °FBroken clouds.9 mph83%29.98 "HgN/A
12:00 PM66 °FLight rain. Broken clouds.8 mph88%29.98 "HgN/A
11:30 AM64 °FBroken clouds.8 mph88%29.98 "HgN/A
11:00 AM64 °FLight rain. More clouds than sun.7 mph88%29.98 "HgN/A
10:30 AM64 °FLight rain. More clouds than sun.9 mph88%29.98 "HgN/A
10:00 AM64 °FLight rain. More clouds than sun.8 mph94%29.95 "HgN/A
Weather by CustomWeather, © 2015

See weather overviewHow to use our weather pages